This is the latest recevied weather packets stored in our database for station/object KC3VCX. If no packets are shown the sender has not sent any weather packets the latest 10 day(s).
| Time | Temp. | Humidity | Pressure | Rain* | Wind** | Luminosity | Snow |
|---|---|---|---|---|---|---|---|
| 1777758566 | 5.56° C | 68% | 1017.1 hPa | 0 mm | - | 99 W/m² | - |
| 1777758262 | 6.11° C | 70% | 1017.1 hPa | 0 mm | - | 150 W/m² | - |
| 1777757960 | 5.56° C | 69% | 1016.9 hPa | 0 mm | - | 164 W/m² | - |
| 1777757656 | 6.11° C | 70% | 1017.1 hPa | 0 mm | - | 185 W/m² | - |
| 1777757355 | 5.56° C | 71% | 1017.1 hPa | 0 mm | - | 205 W/m² | - |
| 1777757053 | 5.56° C | 72% | 1017 hPa | 0 mm | - | 190 W/m² | - |
| 1777756750 | 5° C | 72% | 1016.9 hPa | 0 mm | - | 143 W/m² | - |
| 1777756445 | 5.56° C | 72% | 1016.9 hPa | 0 mm | - | 77 W/m² | - |
| 1777756143 | 5.56° C | 72% | 1017 hPa | 0 mm | - | 62 W/m² | - |
| 1777755840 | 5.56° C | 71% | 1016.8 hPa | 0 mm | - | 105 W/m² | - |
| 1777755537 | 5.56° C | 71% | 1016.9 hPa | 0 mm | - | 120 W/m² | - |
| 1777755233 | 5.56° C | 70% | 1016.9 hPa | 0 mm | - | 129 W/m² | - |
| 1777754930 | 5.56° C | 71% | 1016.9 hPa | 0 mm | - | 130 W/m² | - |
| 1777754627 | 5.56° C | 70% | 1016.8 hPa | 0 mm | - | 106 W/m² | - |
| 1777754325 | 5.56° C | 70% | 1017 hPa | 0 mm | - | 101 W/m² | - |
| 1777754023 | 6.11° C | 69% | 1016.8 hPa | 0 mm | - | 103 W/m² | - |
| 1777753718 | 6.11° C | 69% | 1016.8 hPa | 0 mm | - | 181 W/m² | - |
| 1777753416 | 6.11° C | 69% | 1016.6 hPa | 0 mm | - | 189 W/m² | - |
| 1777753113 | 6.11° C | 69% | 1016.7 hPa | 0 mm | - | 195 W/m² | - |
| 1777752809 | 6.11° C | 70% | 1016.8 hPa | 0 mm | - | 228 W/m² | - |
| 1777752506 | 6.11° C | 72% | 1016.7 hPa | 0 mm | - | 266 W/m² | - |
| 1777752201 | 6.11° C | 72% | 1016.6 hPa | 0 mm | - | 217 W/m² | - |
| 1777751900 | 6.11° C | 71% | 1016.9 hPa | 0 mm | - | 197 W/m² | - |
| 1777751596 | 5.56° C | 72% | 1016.9 hPa | 0 mm | - | 194 W/m² | - |
| 1777751293 | 5.56° C | 71% | 1016.9 hPa | 0 mm | - | 195 W/m² | - |
* Rain latest hour (hover to see other rain measurements)
** Current wind speed in m/s (hover to see current wind gust speed)